Flag for Switzerland Weather past 2 weeks in Kloten, Zurich, Switzerland

Now
61 °F

Fog.


Feels Like: 61 °F
Forecast: 59 / 89 °F
Wind: No wind

Location: Zurich-Kloten

Current Time: Aug 29, 2015 at 8:13:56 AM

Latest Report: Aug 29, 2015 at 7:20 AM


Visibility: N/A

Pressure: 30.21 "Hg

Humidity: 100%

Dew point: 61 °F

Location of KlotenLocation

Historic Weather in Kloten — Graph

°F

Kloten temperature yesterday

Maximum temperature yesterday: 88 °F (at 4:20 PM)
Minimum temperature yesterday: 66 °F (at 4:50 AM)
Average temperature yesterday: 76 °F

Past Weeks' High & Low Weather Summary

 TemperatureHumidityPressure
High88 °F (Aug 28, 4:20 PM)100% (Aug 14, 6:50 PM)30.27 "Hg (Aug 14, 6:50 PM)
Low46 °F (Aug 26, 6:20 AM)35% (Aug 27, 2:20 PM)29.71 "Hg (Aug 24, 7:20 AM)
Average64 °F78%30.02 "Hg
* Reported Aug 14 7:20 AM — Aug 29 7:20 AM, Kloten, Weather by CustomWeather, © 2015

Note: Actual official high and low records may vary slightly from our data, if they occured in-between our weather recording intervals... More about our weather records

Advertising

Kloten weather history for previous 24 hours

 ConditionsComfort  
Time TempWeatherWind HumidityBarometerVisibility
7:20 AM
Sat, Aug 29
61 °FFog.No wind100%30.21 "HgN/A
6:50 AM59 °FFog.2 mph100%30.21 "HgN/A
6:20 AM59 °FFog.No wind100%30.18 "HgN/A
5:50 AM59 °FClear.2 mph100%30.18 "Hg10 mi
5:20 AM59 °FClear.3 mph100%30.18 "Hg10 mi
4:50 AM61 °FClear.3 mph100%30.18 "Hg10 mi
4:20 AM61 °FClear.5 mph94%30.18 "Hg10 mi
3:50 AM61 °FClear.2 mph94%30.18 "Hg10 mi
3:20 AM61 °FClear.2 mph100%30.18 "Hg10 mi
2:50 AM61 °FClear.2 mph94%30.18 "Hg10 mi
2:20 AM61 °FClear.3 mph100%30.18 "Hg10 mi
1:50 AM64 °FClear.1 mph94%30.18 "Hg10 mi
1:20 AM64 °FClear.1 mph94%30.18 "Hg10 mi
12:50 AM64 °FClear.1 mph88%30.18 "Hg10 mi
12:20 AM64 °FClear.1 mph94%30.18 "Hg10 mi
11:50 PM
Fri, Aug 28
66 °FClear.2 mph88%30.18 "Hg10 mi
11:20 PM70 °FClear.2 mph78%30.18 "Hg10 mi
10:50 PM68 °FClear.2 mph83%30.18 "Hg10 mi
10:20 PM72 °FClear.1 mph78%30.15 "Hg10 mi
9:50 PM70 °FClear.1 mph78%30.15 "Hg10 mi
9:20 PM72 °FClear.2 mph73%30.15 "Hg10 mi
8:50 PM75 °FSunny.5 mph65%30.12 "Hg10 mi
8:20 PM81 °FSunny.5 mph51%30.12 "Hg10 mi
7:50 PM79 °FSunny.3 mph58%30.12 "Hg10 mi
7:20 PM81 °FSunny.7 mph54%30.09 "Hg10 mi
6:50 PM84 °FSunny.3 mph48%30.09 "Hg10 mi
6:20 PM86 °FPassing clouds.5 mph38%30.09 "HgN/A
5:50 PM86 °FPassing clouds.5 mph40%30.09 "HgN/A
5:20 PM88 °FPassing clouds.6 mph35%30.09 "HgN/A
4:50 PM88 °FPassing clouds.7 mph35%30.09 "HgN/A
4:20 PM88 °FPassing clouds.7 mph35%30.09 "HgN/A
3:50 PM86 °FPassing clouds.8 mph38%30.09 "HgN/A
3:20 PM86 °FPassing clouds.8 mph38%30.09 "HgN/A
2:50 PM86 °FPassing clouds.7 mph38%30.09 "HgN/A
2:20 PM86 °FSunny.6 mph40%30.09 "Hg10 mi
1:50 PM84 °FPassing clouds.6 mph40%30.12 "HgN/A
1:20 PM84 °FSunny.3 mph43%30.09 "Hg10 mi
12:50 PM82 °FSunny.3 mph42%30.12 "Hg10 mi
12:20 PM81 °FSunny.7 mph45%30.12 "Hg10 mi
11:50 AM81 °FSunny.9 mph48%30.12 "Hg10 mi
11:20 AM79 °FSunny.9 mph51%30.12 "Hg10 mi
10:50 AM79 °FPassing clouds.8 mph51%30.09 "HgN/A
10:20 AM79 °FPassing clouds.8 mph51%30.09 "HgN/A
9:50 AM77 °FPassing clouds.8 mph54%30.09 "HgN/A
9:20 AM75 °FPassing clouds.6 mph61%30.09 "HgN/A
8:50 AM73 °FPassing clouds.3 mph61%30.09 "HgN/A
8:20 AM70 °FSunny.5 mph69%30.09 "Hg10 mi
Weather by CustomWeather, © 2015

See weather overviewHow to use our weather pages